Weather in Vypolzovo

Russia / Mari El Republic     56°43′04″N   48°10′43″E
temp.,
°C
wind,
m/s
gust,
m/s
humid.,
%
clouds,
%
prec.,
mm/h
press.,
hPa
HPBL,
m
25 february, thu
thu2500:00−24ssw129690 0.0 103420
03:00−25s339788 0.0 103339
06:00−22s4896100 0.0 1029222
09:00−20sse61094100 0.0 1026285
12:00−17sse71295100 0.4 1022436
15:00−16sse61194100 1.3 1020603
18:00−16sse61195100 1.1 1018567
21:00−17se5109399 1.3 1017392
26 february, fri
fri2600:00−17se599595 0.1 1017372
03:00−18se489494 0.1 1017322
06:00−20se499791 0.1 1016220
09:00−18se599493 0.1 1016329
12:00−15se5892100 0.0 1014426
15:00−14se71192100 0.1 1012492
18:00−14se81493100 0.1 1007522
21:00−12se81694100 2.5 1003549
27 february, sat
sat2700:00−11se71394100 4.6 999534
03:00−12se51094100 5.4 998349
06:00−12ese4895100 0.3 997263
09:00−11e5894100 0.6 997282
12:00−9e5892100 0.2 998376
15:00−9ene6892100 0.3 1000407
18:00−11ne5109395 0.1 1001362
21:00−14nne489591 0.2 1003194
28 february, sun
sun2800:00−13nne599586 0.1 1004283
03:00−15nne599591 0.4 1006294
06:00−16nne5109499 0.1 1008353
09:00−16nne599499 0.2 1009360
12:00−15n579299 0.0 1011374
15:00−15n589196 0.0 1012448
18:00−18n499698 0.0 1014183
21:00−21n349871 0.0 101786
1 march, mon
mon100:00−22n34980 0.0 101854
03:00−23n34980 0.0 102077
06:00−24n34980 0.0 102255
09:00−20n35960 0.0 1023141
12:00−15nw238850 0.0 1023273
15:00−12w349069 0.0 1022323
18:00−14sw369649 0.0 102098
21:00−14sw489871 0.0 1018188